Location: Palmerston North
(40.3500°S, 175.6170°E)
Time: 19:36:20
(UTC+13:00)

ISS - Pass Details

Date: 01 February 2019
Orbit: 403 x 411 km, 51.6° (Epoch: 22 February)

Event Time Altitude Azimuth Distance (km) Brightness Sun altitude
Exits shadow 05:19:38 16° 277° (W) 1,171 -2.0 -11.6°
Maximum altitude 05:21:59 41° 211° (SSW) 619 -2.9 -11.3°
Drops below altitude 10° 05:25:12 10° 138° (SE) 1,499 0.5 -10.8°
Sets 05:27:22 0° 130° (SE) 2,365 2.2 -10.4°
